Sisseton, SD

2:24 AM CDT on August 29, 2016 (GMT -0500)
Sisseton

Weather History for K8D3 - February, 2013

Change the Weather History Date:

Friday, February 22, 2013

  Actual Average Record
Temperature  
Mean Temperature 16 °F 20 °F  
Max Temperature 20 °F 30 °F 60 °F (1905)
Min Temperature 12 °F 12 °F -19 °F (1952)
Degree Days  
Heating Degree Days 49 44  
Month to date heating degree days 1135 1055  
Since 1 July heating degree days 6087 6001  
Cooling Degree Days 0 0  
Month to date cooling degree days 0 0  
Year to date cooling degree days 0 0  
Moisture  
Dew Point 10 °F    
Average Humidity 81    
Maximum Humidity 88    
Minimum Humidity 73    
Precipitation  
Precipitation 0.05 in 0.02 in 0.12 in (1999)
Month to date precipitation 1.56 0.31  
Year to date precipitation 2.36 0.74  
Snow  
Snow 0.00 in - - ()
Month to date snowfall 20.3  
Since 1 July snowfall 36.5  
Snow Depth 20.00 in    
Sea Level Pressure  
Sea Level Pressure 30.08 in    
Wind  
Wind Speed 11 mph (NNW)    
Max Wind Speed 21 mph    
Max Gust Speed 23 mph    
T = Trace of Precipitation, MM = Missing Value Source: NWS Daily Summary

Daily Weather History Graph

Daily Weather History Graph

Search for Another Location

Airport or City:

Trip Planner

Search our weather history database for the weather conditions in past years. The results will help you decide how hot, cold, wet, or windy it might be!

Date:

Astronomy

Feb. 22, 2013 Rise Set
Actual Time 7:18 AM CST 6:05 PM CST
Civil Twilight 6:48 AM CST 6:35 PM CST
Nautical Twilight 6:13 AM CST 7:09 PM CST
Astronomical Twilight 5:39 AM CST 7:44 PM CST
Moon 3:12 PM CST (2/22) 5:10 AM CST (2/22)
Length of Visible Light 11h 47m
Length of Day
10h 47m
Waxing Gibbous, 90% of the Moon is Illuminated
Feb 22
Waxing Gibbous
Feb 25
Full
Mar 4
Last Quarter
Mar 11
New
Mar 19
First Quarter

Hourly Weather History & Observations

Time (CST) Temp. Windchill Dew Point Humidity Pressure Visibility Wind Dir Wind Speed Gust Speed Precip Events Conditions
12:56 AM 14.0 °F 2.0 °F 8.1 °F 77% 30.20 in - NNW 9.2 mph - N/A   Unknown
1:56 AM 12.9 °F -0.2 °F 8.1 °F 81% 30.18 in - NNW 10.4 mph - N/A   Unknown
2:56 AM 12.9 °F -0.2 °F 8.1 °F 81% 30.17 in - NNW 10.4 mph - N/A   Unknown
3:56 AM 14.0 °F 1.2 °F 8.1 °F 77% 30.14 in - NNW 10.4 mph - N/A   Unknown
4:56 AM 12.9 °F 2.6 °F 8.1 °F 81% 30.14 in - North 6.9 mph - N/A   Unknown
5:56 AM 12.9 °F -0.2 °F 7.0 °F 77% 30.13 in - NNW 10.4 mph - N/A   Unknown
6:56 AM 12.0 °F -2.7 °F 8.1 °F 84% 30.12 in - NNW 12.7 mph - N/A   Unknown
7:56 AM 12.9 °F 0.7 °F 9.0 °F 84% 30.12 in - NNW 9.2 mph - 0.01 in   Unknown
8:56 AM 14.0 °F 0.5 °F 10.9 °F 88% 30.11 in - NNW 11.5 mph - 0.03 in   Unknown
9:56 AM 16.0 °F 2.9 °F 12.0 °F 84% 30.09 in - NNW 11.5 mph - 0.01 in   Unknown
10:56 AM 17.1 °F 3.0 °F 12.0 °F 81% 30.08 in - NNW 13.8 mph - N/A   Unknown
11:56 AM 18.0 °F 3.6 °F 12.9 °F 81% 30.06 in - North 15.0 mph - N/A   Unknown
12:56 PM 19.0 °F 4.5 °F 12.9 °F 77% 30.04 in - NNW 16.1 mph - N/A   Unknown
1:56 PM 19.9 °F 4.8 °F 12.0 °F 71% 30.03 in - North 18.4 mph - N/A   Unknown
2:56 PM 19.9 °F 4.8 °F 12.0 °F 71% 30.03 in - NNW 18.4 mph - N/A   Unknown
3:56 PM 19.9 °F 6.7 °F 12.0 °F 71% 30.03 in - NNW 13.8 mph - N/A   Unknown
4:56 PM 19.9 °F 7.3 °F 12.0 °F 71% 30.03 in - NNW 12.7 mph - N/A   Unknown
5:56 PM 19.9 °F 8.6 °F 12.0 °F 71% 30.03 in - NNW 10.4 mph - N/A   Unknown
6:56 PM 18.0 °F 5.4 °F 12.9 °F 81% 30.03 in - NW 11.5 mph - N/A   Unknown
7:56 PM 17.1 °F 7.6 °F 10.9 °F 77% 30.02 in - NW 6.9 mph - N/A   Unknown
8:56 PM 17.1 °F 10.0 °F 12.0 °F 81% 30.01 in - NE 4.6 mph - N/A   Unknown
9:56 PM 17.1 °F 11.7 °F 10.9 °F 77% 30.01 in - North 3.5 mph - N/A   Unknown
10:56 PM 16.0 °F 10.4 °F 10.0 °F 77% 30.01 in - NW 3.5 mph - N/A   Unknown
11:56 PM 12.0 °F 5.9 °F 7.0 °F 80% 30.00 in - North 3.5 mph - N/A   Unknown